Overview Statistics Trail Chart Weather Telemetry Raw packets
 

This is the latest recevied weather packets stored in our database for station/object DW2488. If no packets are shown the sender has not sent any weather packets the latest 10 day(s).

<< 4 5 6 7 8 9 10 >>
Time Temp. Humidity Pressure Rain* Wind** Luminosity Snow
1788447972 11.67° C 67% 1020.1 hPa 0 mm - 0 W/m² -
1788447080 12.78° C 64% 1019.8 hPa 0 mm - 0 W/m² -
1788446159 13.33° C 63% 1019.9 hPa 0 mm - 0 W/m² -
1788445257 13.33° C 62% 1019.8 hPa 0 mm - 0 W/m² -
1788444364 13.33° C 62% 1019.8 hPa 0 mm - 0 W/m² -
1788443454 13.89° C 61% 1020.1 hPa 0 mm - 0 W/m² -
1788442575 14.44° C 60% 1020 hPa 0 mm - 0 W/m² -
1788441649 14.44° C 60% 1019.8 hPa 0 mm - 0 W/m² -
1788440746 14.44° C 59% 1019.6 hPa 0 mm - 0 W/m² -
1788439846 14.44° C 59% 1019.5 hPa 0 mm - 0 W/m² -
1788438948 14.44° C 61% 1019.3 hPa 0 mm - 0 W/m² -
1788438045 14.44° C 60% 1019.3 hPa 0 mm - 0 W/m² -
1788437143 15° C 59% 1019.2 hPa 0 mm - 0 W/m² -
1788436244 15° C 59% 1019.1 hPa 0 mm - 0 W/m² -
1788435340 15.56° C 58% 1019 hPa 0 mm - 0 W/m² -
1788434438 15.56° C 58% 1019 hPa 0 mm - 0 W/m² -
1788433557 16.11° C 57% 1018.9 hPa 0 mm - 0 W/m² -
1788432636 15.56° C 58% 1018.6 hPa 0 mm - 0 W/m² -
1788431734 16.11° C 57% 1018.3 hPa 0 mm - 0 W/m² -
1788430839 16.67° C 54% 1017.9 hPa 0 mm - 0 W/m² -
1788429925 17.78° C 52% 1017.8 hPa 0 mm - 0 W/m² -
1788429022 17.78° C 51% 1017.4 hPa 0 mm - 0 W/m² -
1788428126 18.33° C 50% 1016.9 hPa 0 mm - 0 W/m² -
1788427219 18.33° C 49% 1016.5 hPa 0 mm - 0 W/m² -
1788426315 18.89° C 46% 1016.2 hPa 0 mm - 0 W/m² -

* Rain latest hour (hover to see other rain measurements)
** Current wind speed in m/s (hover to see current wind gust speed)